x

8637611 - York River East Rear Range Light, Va (ykrv2) Weather Station

1:30pm - Fri 28th Aug 2015 All times are EDT. -4 hours from GMT.

  • Wind
    11mph, 13mph gusts
  • Air Temp 76°f
  • Sea Pressure 1022mb
  • 8637611 - York River East Rear Range Light, Va
  • 8637611 - York River East Rear Range Light, Va

More Historic Weather Station data

Upgrade to MSW Pro to gain access to the past 30 days of data for over 8000 Wavebouys and Weather Stations around the globe.

Join Pro

Comparision Forecast

View Surf forecast
   
Fri 08/28 1:30pm 11 13 mph 1022mb 76f
1:24pm 11 13 mph 1022.1mb 76f
1:18pm 13 14 mph 1022.1mb 76f
1:12pm 13 15 mph 1022.1mb 75f
1:06pm 13 14 mph 1022.1mb 75f
1:00pm 13 14 mph 1022.2mb 75f
12:54pm 14 15 mph 1022.2mb 75f
12:48pm 13 15 mph 1022.3mb 75f
12:42pm 13 14 mph 1022.4mb 76f
12:36pm 13 15 mph 1022.5mb 76f
12:30pm 13 15 mph 1022.4mb 75f
12:24pm 13 16 mph 1022.4mb 76f
12:18pm 13 14 mph 1022.4mb 76f
12:12pm 14 15 mph 1022.5mb 76f
12:06pm 13 15 mph 1022.5mb 76f
12:00pm 13 15 mph 1022.6mb 76f
11:54am 13 15 mph 1022.5mb 76f
11:48am 13 15 mph 1022.5mb 76f
11:42am 13 14 mph 1022.5mb 76f
11:36am 14 15 mph 1022.6mb 76f
11:30am 13 14 mph 1022.6mb 76f
11:24am 13 14 mph 1022.6mb 76f
11:18am 13 14 mph 1022.6mb 76f
11:12am 13 15 mph 1022.6mb 76f
11:06am 13 14 mph 1022.6mb 76f
11:00am 13 15 mph 1022.6mb 76f
10:54am 13 15 mph 1022.5mb 76f
10:48am 10 15 mph 1022.5mb 76f
10:42am 11 14 mph 1022.4mb 76f
10:36am 9 11 mph 1022.3mb 75f
10:30am 11 14 mph 1022.2mb 75f
10:24am 11 15 mph 1022.1mb 76f
10:18am 13 14 mph 1022mb 76f
10:12am 11 14 mph 1022mb 75f
10:06am 10 14 mph 1021.9mb 75f
10:00am 11 14 mph 1021.7mb 75f
9:54am 11 13 mph 1021.7mb 75f
9:48am 11 14 mph 1021.7mb 74f
9:42am 11 14 mph 1021.6mb 75f
9:36am 10 13 mph 1021.6mb 74f
9:30am 11 13 mph 1021.5mb 75f
9:24am 10 13 mph 1021.5mb 74f
9:18am 10 13 mph 1021.5mb 75f
9:12am 10 11 mph 1021.5mb 75f
9:06am 10 11 mph 1021.5mb 75f
9:00am 10 13 mph 1021.3mb 75f
8:54am 10 14 mph 1021.2mb 75f
8:48am 9 13 mph 1021.1mb 75f
8:42am 11 15 mph 1021mb 75f
8:36am 11 14 mph 1021mb 75f
8:30am 11 13 mph 1020.9mb 75f
8:24am 10 14 mph 1020.9mb 75f
8:18am 9 11 mph 1020.8mb 75f
8:12am 9 11 mph 1020.7mb 75f
8:06am 9 10 mph 1020.6mb 75f
8:00am 10 13 mph 1020.5mb 75f
7:54am 11 14 mph 1020.5mb 75f
7:48am 11 14 mph 1020.4mb 75f
7:42am 11 14 mph 1020.3mb 75f
7:36am 11 14 mph 1020.3mb 75f
7:30am 13 14 mph 1020.3mb 75f
7:24am 11 14 mph 1020.2mb 75f
7:18am 11 14 mph 1020.1mb 75f
7:12am 11 15 mph 1020mb 75f
7:06am 14 15 mph 1020mb 75f
7:00am 14 15 mph 1019.9mb 75f
6:54am 13 14 mph 1019.8mb 75f
6:48am 14 15 mph 1019.7mb 74f
6:42am 13 14 mph 1019.7mb 74f
6:36am 13 14 mph 1019.8mb 74f
6:30am 13 14 mph 1019.7mb 74f
6:24am 13 14 mph 1019.6mb 74f
6:18am 13 15 mph 1019.6mb 74f
6:12am 13 14 mph 1019.6mb 74f
6:06am 13 14 mph 1019.6mb 74f
6:00am 14 16 mph 1019.5mb 74f
5:54am 14 15 mph 1019.4mb 75f
5:48am 13 14 mph 1019.4mb 75f
5:42am 11 14 mph 1019.5mb 75f
5:36am 13 14 mph 1019.4mb 75f
5:30am 13 14 mph 1019.4mb 75f
5:24am 13 15 mph 1019.3mb 75f
5:18am 11 14 mph 1019.3mb 75f
5:12am 11 13 mph 1019.4mb 75f
5:06am 11 13 mph 1019.4mb 75f
5:00am 11 13 mph 1019.3mb 75f
4:54am 11 13 mph 1019.3mb 75f
4:48am 11 14 mph 1019.2mb 75f
4:42am 11 14 mph 1019.2mb 75f
4:36am 11 13 mph 1019.2mb 75f
4:30am 11 14 mph 1019.2mb 76f
4:24am 11 13 mph 1019.1mb 75f
4:18am 10 14 mph 1019.1mb 75f
4:12am 10 13 mph 1019.1mb 75f
4:06am 11 13 mph 1019mb 75f
4:00am 11 13 mph 1019mb 75f
3:54am 11 14 mph 1019.1mb 76f
3:48am 13 14 mph 1019.2mb 75f
3:42am 11 14 mph 1019.3mb 76f
3:36am 11 14 mph 1019.2mb 76f
3:30am 14 15 mph 1019.3mb 76f
3:24am 11 15 mph 1019.3mb 76f
3:18am  -  mph - 76f
3:12am  -  mph - 76f
3:06am  -  mph - 76f
3:00am 13 15 mph 1019.2mb 76f
2:54am 10 13 mph 1019.3mb 75f
2:48am 10 11 mph 1019.4mb 75f
2:42am 9 11 mph 1019.4mb 75f
2:36am 8 10 mph 1019.4mb 75f
2:30am 9 10 mph 1019.5mb 75f
2:24am 9 10 mph 1019.6mb 75f
2:18am 10 13 mph 1019.5mb 75f
2:12am 10 11 mph 1019.5mb 75f
2:06am 9 11 mph 1019.6mb 75f
2:00am 8 10 mph 1019.6mb 75f
1:54am 9 11 mph 1019.7mb 75f
1:48am 8 9 mph 1019.7mb 76f
1:42am 9 10 mph 1019.7mb 76f
1:36am 9 10 mph 1019.8mb 76f
1:30am 8 10 mph 1019.8mb 76f
1:24am 9 10 mph 1019.7mb 76f
1:18am 9 10 mph 1019.8mb 76f
1:12am 9 10 mph 1019.8mb 76f
1:06am 10 11 mph 1019.9mb 76f
1:00am 10
mph
1019.9mb 76f
12:54am 11 13 mph 1019.8mb 76f
12:48am 10 13 mph 1019.8mb 76f
12:42am 9 11 mph 1019.8mb 76f
12:36am 9 10 mph 1019.8mb 76f
12:30am 9 10 mph 1019.8mb 76f
12:24am 9 11 mph 1019.8mb 76f
12:18am 9 10 mph 1019.8mb 76f
12:12am 8 10 mph 1019.8mb 76f
12:06am 9 10 mph 1019.7mb 76f
12:00am 8 9 mph 1019.7mb 76f
Thu 08/27 11:54pm 8 9 mph 1019.7mb 76f
11:48pm 9 10 mph 1019.7mb 76f
11:42pm 8 9 mph 1019.7mb 76f
11:36pm 9 11 mph 1019.6mb 76f
11:30pm 9 10 mph 1019.5mb 76f
11:24pm 9 10 mph 1019.5mb 76f
11:18pm 9 10 mph 1019.6mb 76f
11:12pm 8 10 mph 1019.5mb 76f
11:06pm 9 11 mph 1019.5mb 76f
11:00pm 8 10 mph 1019.5mb 76f
10:54pm 9 10 mph 1019.5mb 76f
10:48pm 9 11 mph 1019.5mb 76f
10:42pm 9 10 mph 1019.5mb 76f
10:36pm 8 10 mph 1019.5mb 77f
10:30pm 9 10 mph 1019.5mb 77f
10:24pm 9 10 mph 1019.4mb 77f
10:18pm 9 10 mph 1019.3mb 77f
10:12pm 9 10 mph 1019.3mb 77f
10:06pm 9 11 mph 1019.3mb 77f
10:00pm 9 10 mph 1019.3mb 77f
9:54pm 10 11 mph 1019.3mb 77f
9:48pm 9 13 mph 1019.3mb 77f
9:42pm 9 11 mph 1019.3mb 77f
9:36pm 9 10 mph 1019.3mb 77f
9:30pm 9 10 mph 1019.3mb 77f
9:24pm 9 10 mph 1019.2mb 77f
9:18pm 9 10 mph 1019.2mb 77f
9:12pm 9 10 mph 1019.1mb 77f
9:06pm 10 11 mph 1019mb 77f
9:00pm 10 13 mph 1018.9mb 77f
8:54pm 10 11 mph 1018.9mb 77f
8:48pm 10 11 mph 1018.9mb 77f
8:42pm 10 13 mph 1018.9mb 77f
8:36pm 10 13 mph 1018.7mb 77f
8:30pm 11 13 mph 1018.6mb 77f
8:24pm 11 13 mph 1018.4mb 77f
8:18pm 9 11 mph 1018.4mb 77f
8:12pm 10 13 mph 1018.3mb 77f
8:06pm 11 14 mph 1018.2mb 76f
8:00pm 11 13 mph 1018.1mb 76f
7:54pm 10 11 mph 1018mb 76f
7:48pm 10 11 mph 1018.1mb 76f
7:42pm 11 13 mph 1018.2mb 76f
7:36pm 9 11 mph 1018.2mb 76f
7:30pm 10 13 mph 1018.2mb 76f
7:24pm 10 11 mph 1018.2mb 76f
7:18pm 10 11 mph 1018.3mb 76f
7:12pm 10 13 mph 1018.3mb 76f
7:06pm 9 11 mph 1018.3mb 76f
7:00pm 10 11 mph 1018.3mb 76f
6:54pm 10 13 mph 1018.3mb 76f
6:48pm 9 11 mph 1018.3mb 76f
6:42pm 10 11 mph 1018.2mb 76f
6:36pm 10 13 mph 1018.1mb 76f
6:30pm 10 13 mph 1018.1mb 76f
6:24pm 9 11 mph 1018.1mb 76f
6:18pm 10 13 mph 1018.1mb 76f
6:12pm 10 11 mph 1018.1mb 76f
6:06pm 10 13 mph 1018.1mb 76f
6:00pm 10 11 mph 1018.1mb 76f
5:54pm 11 13 mph 1018.1mb 76f
5:48pm 11 14 mph 1018.1mb 76f
5:42pm 11 13 mph 1018.1mb 76f
5:36pm 11 14 mph 1018.1mb 76f
5:30pm 11 14 mph 1018mb 76f
5:24pm 11 14 mph 1018mb 76f
5:18pm 11 14 mph 1018mb 76f
5:12pm 11 13 mph 1018mb 76f
5:06pm 11 13 mph 1018mb 76f
5:00pm 11 13 mph 1018mb 76f
4:54pm 11 14 mph 1018mb 76f
4:48pm 11 13 mph 1018.1mb 76f
4:42pm 11 13 mph 1018mb 76f
4:36pm 11 13 mph 1018.1mb 76f
4:30pm 11 14 mph 1018mb 76f
4:24pm 11 14 mph 1018mb 76f
4:18pm 10 13 mph 1018.1mb -
4:12pm  -  mph 1018mb 75f
4:06pm 11 14 mph 1018mb 75f
4:00pm 11 14 mph - -
3:54pm 11 14 mph - -
3:48pm  -  mph - 75f
3:42pm  -  mph - 75f
3:36pm  -  mph - 75f
3:30pm 13 14 mph 1018.1mb 75f
3:24pm 11 13 mph 1018.2mb 75f
3:18pm  -  mph 1018.2mb 75f
3:12pm  -  mph 1018.2mb 75f
3:06pm  -  mph 1018.2mb 75f
3:00pm 13 15 mph - 75f
2:54pm 13 15 mph - 75f
2:48pm 14 16 mph - 75f
2:42pm 13 15 mph - 75f
2:36pm 11 14 mph - 75f
2:30pm 13 14 mph - 75f
2:24pm 13 14 mph - 75f
2:18pm 13 15 mph 1018.5mb 75f
2:12pm 13 14 mph 1018.5mb 74f
2:06pm 11 14 mph 1018.6mb 74f
2:00pm 11 13 mph 1018.6mb 75f
1:54pm 10 13 mph 1018.6mb 75f
1:48pm 11 14 mph 1018.7mb 75f
1:42pm 11 13 mph 1018.7mb 75f
1:36pm 13 15 mph 1018.7mb 74f
1:30pm 13 16 mph 1018.7mb 74f
1:24pm 14 16 mph 1018.7mb 74f
1:18pm 13 15 mph 1018.7mb 74f
1:12pm 13 16 mph 1018.8mb 74f
1:06pm 14 17 mph 1018.8mb 74f
1:00pm 14 15 mph 1018.9mb 74f
12:54pm 14 16 mph 1018.9mb 74f
12:48pm 13 15 mph 1019.1mb 74f
12:42pm 13 15 mph 1019.1mb 74f
12:36pm 15 16 mph 1018.9mb 74f
12:30pm  -  mph - 74f
12:24pm  -  mph - 74f
12:18pm 14 15 mph 1019.1mb 74f
12:12pm 14 16 mph 1019.3mb 74f
12:06pm 14 15 mph 1019.3mb 75f
12:00pm 14 17 mph 1019.3mb 75f
11:54am 14 15 mph 1019.4mb 75f
11:48am  -  mph - 74f
11:42am  -  mph - 75f
11:36am  -  mph - 75f
11:30am 15 17 mph 1019.7mb 75f
11:24am 15 17 mph 1019.7mb 75f
11:18am  -  mph - 75f
11:12am  -  mph - 75f
11:06am  -  mph - 74f
11:00am 16 20 mph 1019.4mb 74f
10:54am 17 21 mph 1019.1mb 74f
10:48am 18 20 mph 1019.1mb 74f
10:42am 17 20 mph 1019.2mb 74f
10:36am 16 18 mph 1019.1mb 74f
10:30am 17 21 mph 1019mb 74f
10:24am 18 21 mph 1018.9mb 74f
10:18am 17 22 mph 1018.9mb 74f
10:12am 17 21 mph 1018.8mb 74f
10:06am 17 20 mph 1018.8mb 74f
10:00am 17 21 mph 1018.7mb 75f
9:54am 18 21 mph 1018.7mb 74f
9:48am 20 22 mph 1018.5mb 74f
9:18am  -  mph - 75f
9:12am  -  mph - 75f
9:06am  -  mph - 75f
9:00am  -  mph - 74f
8:54am  -  mph - 74f
8:48am  -  mph - 74f
8:42am  -  mph - 74f
8:36am  -  mph - 74f
8:30am  -  mph - 74f
8:24am  -  mph - 74f
8:18am  -  mph - 75f
8:12am  -  mph - 74f
8:06am  -  mph - 75f
8:00am 18 21 mph 1018mb 75f
7:54am 20 23 mph 1017.9mb 75f
7:48am  -  mph - 75f
7:42am  -  mph - 75f
7:36am  -  mph - 75f
7:30am  -  mph - 75f
7:24am  -  mph - 75f
7:18am 20 23 mph 1017.3mb 75f
7:12am 20 22 mph 1017.2mb 75f
7:06am 20 23 mph 1017.2mb 75f
7:00am 21 24 mph 1017.1mb 75f
6:54am 20 22 mph 1017.1mb 75f
6:48am 18 22 mph 1017.1mb 75f
6:42am 22 24 mph 1017.1mb 75f
6:36am 18 22 mph 1017.1mb 75f
6:30am 20 22 mph 1017mb 75f
6:24am 15 20 mph 1016.9mb 75f
6:18am 14 15 mph 1016.8mb 75f
6:12am 13 16 mph 1016.7mb 75f
6:06am 14 16 mph 1016.6mb 75f
6:00am 14 16 mph 1016.5mb 75f
5:54am 14 16 mph 1016.4mb 75f
5:48am 14 16 mph 1016.3mb 75f
1:30am 15 16 mph 1016.3mb 76f
1:24am 15 16 mph 1016.2mb 76f
1:18am 15 17 mph 1016.2mb 76f
1:12am 15 17 mph 1016.2mb 76f
1:06am 14 16 mph 1016.3mb 77f
1:00am 13 14 mph 1016.4mb 76f
12:54am 14 16 mph 1016.5mb 76f
12:48am 14 15 mph 1016.6mb 76f
12:42am 14 15 mph 1016.6mb 77f
12:36am 14 16 mph 1016.6mb 76f
12:30am 15 16 mph 1016.6mb 76f
12:24am 14 16 mph 1016.7mb 76f
12:18am 15 17 mph 1016.7mb 77f